TimeMST,TemperatureF,Dew PointF,Humidity,Sea Level PressureIn,VisibilityMPH,Wind Direction,Wind SpeedMPH,Gust SpeedMPH,PrecipitationIn,Events,Conditions,WindDirDegrees,DateUTC
12:15 AM,35.6,15.8,44,30.19,10.0,North,6.9,-,N/A,,Clear,360,2013-02-15 07:15:00
12:35 AM,35.6,15.8,44,30.20,10.0,Calm,Calm,-,N/A,,Clear,0,2013-02-15 07:35:00
12:55 AM,35.6,15.8,44,30.20,10.0,WNW,10.4,-,N/A,,Clear,290,2013-02-15 07:55:00
1:15 AM,35.6,15.8,44,30.21,10.0,NW,10.4,-,N/A,,Clear,320,2013-02-15 08:15:00
1:35 AM,35.6,15.8,44,30.21,10.0,NNW,10.4,-,N/A,,Clear,330,2013-02-15 08:35:00
1:55 AM,35.6,15.8,44,30.21,10.0,NNW,10.4,-,N/A,,Clear,330,2013-02-15 08:55:00
2:15 AM,35.6,15.8,44,30.21,10.0,NNW,5.8,-,N/A,,Clear,330,2013-02-15 09:15:00
2:35 AM,35.6,15.8,44,30.21,10.0,NW,3.5,-,N/A,,Clear,320,2013-02-15 09:35:00
2:55 AM,35.6,15.8,44,30.21,10.0,WNW,3.5,-,N/A,,Clear,300,2013-02-15 09:55:00
3:15 AM,35.6,15.8,44,30.20,10.0,North,6.9,-,N/A,,Clear,350,2013-02-15 10:15:00
3:35 AM,32.0,15.8,51,30.20,10.0,NW,11.5,-,N/A,,Clear,310,2013-02-15 10:35:00
3:55 AM,35.6,15.8,44,30.20,10.0,NNW,11.5,-,N/A,,Clear,340,2013-02-15 10:55:00
4:15 AM,33.8,15.8,48,30.21,10.0,North,4.6,-,N/A,,Clear,10,2013-02-15 11:15:00
4:35 AM,33.8,15.8,48,30.21,10.0,Calm,Calm,-,N/A,,Clear,0,2013-02-15 11:35:00
4:55 AM,35.6,14.0,41,30.23,10.0,NNW,3.5,-,N/A,,Clear,340,2013-02-15 11:55:00
5:15 AM,35.6,14.0,41,30.23,10.0,NW,8.1,-,N/A,,Clear,320,2013-02-15 12:15:00
5:35 AM,33.8,14.0,44,30.23,10.0,NW,12.7,-,N/A,,Clear,320,2013-02-15 12:35:00
5:55 AM,32.0,14.0,48,30.23,10.0,NW,13.8,-,N/A,,Clear,310,2013-02-15 12:55:00
6:15 AM,32.0,15.8,51,30.24,10.0,NW,12.7,-,N/A,,Clear,310,2013-02-15 13:15:00
6:35 AM,32.0,15.8,51,30.25,10.0,NW,13.8,-,N/A,,Clear,320,2013-02-15 13:35:00
6:55 AM,32.0,15.8,51,30.26,10.0,NW,11.5,-,N/A,,Clear,320,2013-02-15 13:55:00
7:15 AM,32.0,15.8,51,30.26,10.0,NW,6.9,-,N/A,,Clear,310,2013-02-15 14:15:00
7:55 AM,32.0,14.0,48,30.29,10.0,Calm,Calm,-,N/A,,Clear,0,2013-02-15 14:55:00
8:15 AM,35.6,14.0,41,30.30,10.0,WNW,5.8,-,N/A,,Clear,290,2013-02-15 15:15:00
8:35 AM,37.4,14.0,38,30.30,10.0,West,9.2,-,N/A,,Clear,280,2013-02-15 15:35:00
8:55 AM,39.2,17.6,42,30.31,10.0,WNW,10.4,-,N/A,,Clear,290,2013-02-15 15:55:00
9:15 AM,41.0,15.8,36,30.32,10.0,West,5.8,-,N/A,,Clear,260,2013-02-15 16:15:00
9:35 AM,42.8,14.0,31,30.32,10.0,Calm,Calm,-,N/A,,Clear,0,2013-02-15 16:35:00
9:55 AM,44.6,10.4,25,30.33,10.0,North,3.5,-,N/A,,Clear,360,2013-02-15 16:55:00
10:15 AM,46.4,10.4,23,30.33,10.0,NNW,4.6,-,N/A,,Clear,330,2013-02-15 17:15:00
10:35 AM,48.2,6.8,19,30.33,10.0,SSW,4.6,-,N/A,,Clear,210,2013-02-15 17:35:00
10:55 AM,48.2,5.0,17,30.33,10.0,Calm,Calm,-,N/A,,Clear,0,2013-02-15 17:55:00
11:15 AM,48.2,14.0,25,30.32,10.0,South,9.2,-,N/A,,Clear,170,2013-02-15 18:15:00
11:35 AM,50.0,14.0,24,30.31,10.0,South,10.4,-,N/A,,Clear,170,2013-02-15 18:35:00
11:55 AM,50.0,14.0,24,30.31,10.0,South,9.2,-,N/A,,Clear,170,2013-02-15 18:55:00
12:15 PM,50.0,14.0,24,30.30,10.0,SSW,8.1,-,N/A,,Clear,210,2013-02-15 19:15:00
12:35 PM,50.0,12.2,22,30.29,10.0,South,9.2,16.1,N/A,,Clear,170,2013-02-15 19:35:00
12:55 PM,50.0,12.2,22,30.28,10.0,SSW,8.1,-,N/A,,Clear,210,2013-02-15 19:55:00
1:15 PM,53.6,10.4,18,30.26,10.0,SW,9.2,-,N/A,,Clear,220,2013-02-15 20:15:00
1:35 PM,53.6,8.6,16,30.25,10.0,WNW,6.9,16.1,N/A,,Clear,300,2013-02-15 20:35:00
1:55 PM,57.2,10.4,16,30.24,10.0,ESE,16.1,24.2,N/A,,Clear,120,2013-02-15 20:55:00
2:15 PM,55.4,8.6,15,30.25,10.0,East,4.6,-,N/A,,Clear,100,2013-02-15 21:15:00
2:35 PM,57.2,1.4,10,30.26,10.0,NNE,11.5,23.0,N/A,,Clear,30,2013-02-15 21:35:00
2:55 PM,55.4,8.6,15,30.25,10.0,SSW,8.1,-,N/A,,Clear,210,2013-02-15 21:55:00
3:15 PM,55.4,12.2,18,30.25,10.0,South,16.1,20.7,N/A,,Clear,170,2013-02-15 22:15:00
3:35 PM,55.4,10.4,17,30.25,10.0,SSW,13.8,20.7,N/A,,Clear,200,2013-02-15 22:35:00
3:55 PM,55.4,14.0,20,30.26,10.0,SSW,12.7,26.5,N/A,,Clear,200,2013-02-15 22:55:00
4:15 PM,55.4,14.0,20,30.27,10.0,South,13.8,-,N/A,,Clear,180,2013-02-15 23:15:00
4:35 PM,53.6,14.0,21,30.27,10.0,South,13.8,-,N/A,,Clear,190,2013-02-15 23:35:00
4:55 PM,51.8,14.0,22,30.27,10.0,South,11.5,-,N/A,,Clear,170,2013-02-15 23:55:00
5:15 PM,51.8,14.0,22,30.28,10.0,South,11.5,-,N/A,,Clear,170,2013-02-16 00:15:00
5:35 PM,50.0,12.2,22,30.29,10.0,SSE,11.5,-,N/A,,Clear,160,2013-02-16 00:35:00
5:55 PM,48.2,12.2,24,30.28,10.0,South,8.1,-,N/A,,Clear,170,2013-02-16 00:55:00
6:15 PM,44.6,10.4,25,30.29,10.0,SSE,6.9,-,N/A,,Clear,150,2013-02-16 01:15:00
6:35 PM,44.6,10.4,25,30.30,10.0,SSE,6.9,-,N/A,,Clear,150,2013-02-16 01:35:00
6:55 PM,42.8,10.4,27,30.31,10.0,SE,3.5,-,N/A,,Clear,140,2013-02-16 01:55:00
7:15 PM,41.0,8.6,26,30.32,10.0,Calm,Calm,-,N/A,,Clear,0,2013-02-16 02:15:00
7:35 PM,33.8,8.6,35,30.32,10.0,Calm,Calm,-,N/A,,Clear,0,2013-02-16 02:35:00
7:55 PM,32.0,6.8,35,30.33,10.0,Calm,Calm,-,N/A,,Clear,0,2013-02-16 02:55:00
8:15 PM,32.0,8.6,38,30.33,10.0,North,6.9,-,N/A,,Clear,10,2013-02-16 03:15:00
8:35 PM,32.0,8.6,38,30.34,10.0,North,10.4,-,N/A,,Clear,360,2013-02-16 03:35:00
8:55 PM,32.0,10.4,41,30.35,10.0,North,5.8,-,N/A,,Clear,350,2013-02-16 03:55:00
9:15 PM,32.0,8.6,38,30.35,10.0,North,10.4,-,N/A,,Clear,360,2013-02-16 04:15:00
9:35 PM,32.0,10.4,41,30.35,10.0,North,10.4,-,N/A,,Clear,350,2013-02-16 04:35:00
9:55 PM,32.0,10.4,41,30.36,10.0,North,11.5,-,N/A,,Clear,360,2013-02-16 04:55:00
10:15 PM,32.0,10.4,41,30.36,10.0,North,11.5,-,N/A,,Clear,350,2013-02-16 05:15:00
10:35 PM,32.0,10.4,41,30.37,10.0,North,10.4,-,N/A,,Clear,360,2013-02-16 05:35:00
10:55 PM,32.0,10.4,41,30.38,10.0,North,10.4,-,N/A,,Clear,360,2013-02-16 05:55:00
11:15 PM,32.0,10.4,41,30.38,10.0,North,8.1,-,N/A,,Clear,360,2013-02-16 06:15:00
11:35 PM,30.2,10.4,44,30.39,10.0,North,9.2,-,N/A,,Clear,350,2013-02-16 06:35:00
11:55 PM,28.4,8.6,43,30.39,10.0,NNE,8.1,-,N/A,,Clear,20,2013-02-16 06:55:00